map of ROI home
Great Circle Mapper logo
ROI - Airport
Location
City:  Roi Et, Roi Et, Thailand
ICAO:VTUV
IATA:ROI

Details
Type:Airport (Aerodrome, Airfield)
Latitude:1607'00"N (16.116761)
Longitude:10346'26"E (103.773797)
Datum:WGS 1984
Elevation:451 ft (137 m)
Variation:0.82W (WMM2015 magnetic declination)
-0.01 annual change
Runways:1
Longest:6890 × 148 ft (2100 × 45 m), paved

Time
Time Zone:UTC+7
Local Time:

Weather
METAR:VTUV 252300Z 00000KT 7000 FEW015 BKN020 26/25 Q1006 A2972 INFO X RWY 36
TAF:VTUV 251700Z 2518/2618 26005KT 8000 SCT025 BKN100
TEMPO 2518/2522 VRB10KT 5000 FEW018CB SCT020 OVC100
BECMG 2602/2604 22005KT 9999 SCT030 BKN100

Related Locations
Nearby:
Farthest:SJA: 12351 mi / 19877 km
San Juan de Marcona [San Juan de Marcona Airport], ICA, PE

Find:

   beyond  
but within

Other Information
Maps:
NOTAMs:
Links:
Sources:

  
flag of Thailand   

Sectional Chart

Flight Planning
at skyvector.com

Satellite Image

Google Maps Satellite view

 

Copyright © 2004-2016 Karl L. Swartz. All rights reserved.
The Great Circle Mapper name and logo are trademarks of the Great Circle Mapper.
All other trademarks mentioned herein belong to their respective owners.
Please see credits for attibutions and further copyright information.

  Follow gcmap on Facebook Follow gcmap on Twitter Follow gcmap on Google+ GCmap on LinkedIn

hCard Microformat

Geo Microformat